sat.trackr.live / text

‹ back to catalog

STARLINK-34385

NORAD 64352 · 2025-126J

PAYLOAD ACTIVE UNKNOWN

§ Identity

Operator
Country
US
Launch date
2025-06-13
Launch site
AFWTR
Launch vehicle
Mass (kg)
RCS (m²)

Purposes: comms

External: N2YO · Heavens-Above · Gunter

§ Orbital elements

Epoch: 2026-05-25T03:55:38.178912Z

Period
96.11 min
Inclination
70.0003°
Eccentricity
0.0003976
Mean motion
14.98336861 rev/d
Perigee alt
569.3 km
Apogee alt
574.8 km
Semi-major
6,950.2 km
B*
2.7050e-4
RAAN
201.7703°
Arg perigee
268.0801°
Mean anomaly
91.9903°
Rev number
5,213

§ Raw data

STARLINK-343851 64352U 25126J   26145.16363633  .00003137  00000+0  27050-3 0  99952 64352  70.0003 201.7703 0003976 268.0801  91.9903 14.98336861 52133

JSON: /api/v1/satellites/64352 · /tle

For live sub-satellite position, see the globe view (requires WebGL).

§ Visibility from observer

Set your observer location to see the next 7 days of passes ≥ 10°. The values pass through the URL so the page stays shareable.

No JS? Fill the form by hand. The geolocation button needs JavaScript.